Regional Weather Roundup
Issued by NWS

Home | Current Version | Previous Version | Text Only | Print | Product List | Glossary Off
Versions: 1 2 3 4 5 6 7 8 9 10 11 12 13 14 15 16 17 18 19 20 21 22 23 24 25 26 27 28 29 30 31 32 33 34 35 36 37 38 39 40 41 42 43 44 45 46 47 48 49 50

585
ASUS44 KMEG 230310
RWRTN
TENNESSEE HOURLY STATE WEATHER ROUNDUP
NATIONAL WEATHER SERVICE MEMPHIS TN
1000 PM CDT FRI SEP 22 2017

TNZ002-004-019-021-049-052-054-088>092-230400-
WEST TENNESSEE

CITY           SKY/WX    TMP DP  RH WIND       PRES   REMARKS
MEMPHIS INTL   PTCLDY    82  68  62 E7        29.99S
NWS MEMPHIS      N/A     75 N/A N/A MISG        N/A
JACKSON        CLEAR     72  71  97 CALM      30.01S
DYERSBURG      CLEAR     76  72  87 E3        30.01S
SOMERVILLE     CLEAR     73  72  94 CALM      29.99S
COVINGTON      CLEAR     73  70  88 CALM      30.00R
BOLIVAR        CLEAR     72  70  94 CALM      30.00S
PARIS          CLEAR     68  68 100 CALM      30.01S
HUNTINGDON     CLEAR     72  70  94 CALM      30.00S
LEXINGTON      CLEAR     72  70  94 CALM      30.01S
SELMER         CLEAR     72  70  94 CALM      30.01R
SAVANNAH       CLEAR     72  70  94 CALM      30.00S
$$

TNZ008-025-027-028-033-062-065-066-230400-
NORTH MIDDLE TENNESSEE

CITY           SKY/WX    TMP DP  RH WIND       PRES   REMARKS
NASHVILLE      PTCLDY    75  68  78 N3        30.03S
PORTLAND       CLEAR     72  70  94 CALM      30.04R
CLARKSVILLE    CLEAR     73  66  78 CALM      30.03R
SMYRNA         CLEAR    N/A N/A N/A MISG        N/A
COOKEVILLE     CLEAR     72  70  94 CALM      30.05R
GALLATIN       CLEAR     75  68  78 CALM      30.05S
CROSSVILLE     CLEAR     68  66  93 CALM      30.11S
$$

TNZ061-075-076-078-094-096-097-230400-
SOUTH MIDDLE TENNESSEE

CITY           SKY/WX    TMP DP  RH WIND       PRES   REMARKS
FAYETTEVILLE   CLEAR     75  68  78 E3        30.03S
TULLAHOMA      CLEAR     68  64  88 CALM      30.06S
WINCHESTER     CLEAR     70  66  88 CALM      30.05R
MCMINNVILLE    CLEAR     70  70 100 CALM      30.05S
COLUMBIA       PTCLDY    72 N/A N/A CALM      30.01S
SHELBYVILLE    CLEAR     72  70  94 CALM      30.03S
$$

TNZ017-018-042-046-047-230400-
NORTHEAST TENNESSEE

CITY           SKY/WX    TMP DP  RH WIND       PRES   REMARKS
TRI CITIES     PTCLDY    66  64  93 CALM      30.10R
ELIZABETHTON   CLEAR     66  63  88 CALM      30.10R
$$

TNZ012-013-036-069-073-074-230400-
CENTRAL EAST TENNESSEE

CITY           SKY/WX    TMP DP  RH WIND       PRES   REMARKS
KNOXVILLE      PTCLDY    75  66  73 CALM      30.04R
OAK RIDGE      CLEAR     71  67  87 CALM      30.07R
DOWNTOWN KNOXV   N/A     70  68  94 CALM      30.04R
GATLINBURG     CLEAR     70  63  78 CALM      30.05R
MORRISTOWN     CLOUDY    73  64  73 CALM      30.06R
JACKSBORO      CLEAR     68  66  94 CALM      30.10S
$$

TNZ083-085-099-230400-
SOUTHEAST TENNESSEE

CITY           SKY/WX    TMP DP  RH WIND       PRES   REMARKS
CHATTANOOGA    PTCLDY    75  68  78 NW3       30.03S
DAYTON         CLEAR     70  70 100 CALM      30.03S
$$

SKY/WX REPORTED AS FAIR MEANS FEW OR NO CLOUDS BELOW
12 THOUSAND FEET.





USA.gov is the U.S. government's official web portal to all federal, state and local government web resources and services.